CAPE
0 0 0 0 0 0 0 0 0 0 0 0 0 0 0 0 0 0 0 0 0 0 0 0 0 0 0 0 0 0 0 0 0 0 0 0 0 0 0 0 0 0 0 0 0
0 0 0 0 0 0 0 0 0 0 0 0 0 0 0 0 0 0 0 0 0 0 0 0 0 0 0 0 0 0 0 0 0 0 0 0 0 0 0 0 0 0 0 0 0
0 0 0 0 0 0 0 0 0 0 0 0 0 0 0 0 0 0 0 0 0 0 0 0 0 0 0 0 0 0 0 0 0 0 0 0 0 0 0 0 0 0 0 1 10
0 0 0 0 0 0 0 0 0 0 0 0 0 0 0 0 0 0 0 0 0 0 0 0 0 0 0 0 0 0 0 0 0 0 0 0 0 0 0 0 0 0 4 0 0
0 0 0 0 0 0 0 0 0 0 0 0 0 0 0 0 0 0 0 0 0 0 0 0 0 0 0 0 0 0 0 0 0 0 0 0 0 0 0 0 0 0 0 0 0
0 0 0 0 0 0 0 0 0 0 0 0 0 0 0 0 0 0 0 0 0 0 0 0 0 0 0 0 0 0 0 0 0 0 0 0 0 1 0 0 0 1 1 2 0
0 0 0 0 0 0 0 0 0 0 0 0 0 0 0 0 0 0 0 0 0 0 0 0 0 0 0 0 0 0 0 0 0 0 0 0 0 0 0 0 0 0 2 0 2
0 0 0 0 0 0 0 0 0 0 0 0 0 0 0 0 0 0 0 0 0 0 0 0 0 0 0 0 0 0 0 0 0 0 0 0 0 0 0 0 0 0 1 1 0
0 0 0 0 0 0 0 0 0 0 0 0 0 0 0 0 0 0 0 0 0 0 0 0 0 0 0 0 0 0 0 0 0 0 0 0 0 0 0 0 0 0 1 1 1
0 0 0 0 0 0 0 0 0 0 0 0 0 0 0 0 0 0 0 0 0 0 0 0 0 0 0 0 0 0 0 0 0 0 0 0 0 0 0 0 0 0 1 0 2
0 0 0 0 0 0 0 0 0 0 0 0 0 0 0 0 0 0 0 0 0 0 0 0 0 0 0 0 0 0 0 0 0 0 0 0 0 0 0 0 0 0 0 0 1
0 0 0 0 0 0 0 0 0 0 0 0 0 0 0 0 0 0 0 0 0 0 0 0 0 0 0 0 0 0 0 0 0 0 0 0 0 0 0 0 0 0 0 0 0
0 0 0 0 0 0 0 0 0 0 0 0 0 0 0 0 0 0 0 0 0 0 0 0 0 0 0 0 0 0 0 0 0 0 0 0 0 0 0 0 0 0 0 0 0
0 0 0 0 0 0 0 0 0 0 0 0 0 0 0 0 0 0 0 0 0 0 0 0 0 0 0 0 0 0 0 0 0 0 0 0 0 0 0 0 0 0 0 0 0
0 0 0 0 0 0 0 0 0 0 0 0 0 0 0 0 0 0 0 0 0 0 0 0 0 0 0 0 0 0 0 0 0 0 0 0 0 0 0 0 0 0 0 0 0
2 0 0 0 0 0 0 0 0 0 0 0 0 0 0 0 0 0 0 0 0 0 0 0 0 0 0 0 0 0 0 0 0 0 0 0 0 0 0 0 0 0 0 0 0
1 0 0 0 0 0 0 0 0 0 0 0 0 0 0 0 0 0 0 0 0 0 0 0 0 0 0 0 0 0 0 0 0 0 0 0 0 0 0 0 0 0 0 0 0
0 0 0 0 0 0 0 0 0 0 0 0 0 0 0 0 0 0 0 0 0 0 0 0 0 0 0 0 0 0 0 0 0 0 0 0 0 0 0 0 0 0 0 0 0
0 0 0 0 0 0 0 0 0 0 0 0 0 0 0 0 0 0 0 0 0 0 0 0 0 0 0 0 0 0 0 0 0 0 0 0 0 0 0 0 0 0 0 0 0
0 0 0 0 0 0 0 0 0 0 0 0 0 0 0 0 0 0 0 0 0 0 0 0 0 0 0 0 0 0 0 0 0 0 0 0 0 0 0 0 0 0 0 0 0
0 0 0 0 0 0 0 0 0 0 0 0 0 0 0 0 0 0 0 0 0 0 0 0 0 0 0 0 0 0 0 0 0 0 0 0 0 0 0 0 0 0 0 0 0
0 0 0 0 0 0 0 0 0 0 0 0 0 0 0 0 0 0 0 0 0 0 0 0 0 0 0 0 0 0 0 0 0 0 0 0 0 0 0 0 0 0 0 0 0
0 0 0 0 0 0 0 0 0 0 0 0 0 0 0 0 0 0 0 0 0 0 0 0 0 0 0 0 0 0 0 0 0 0 0 0 0 0 0 0 0 0 0 0 0
0 0 0 0 0 0 0 0 0 0 0 0 0 0 0 0 0 0 0 0 0 0 0 0 0 0 0 0 0 0 0 0 0 0 0 0 0 0 0 0 0 0 0 0 0
0 0 0 0 0 0 0 0 0 0 0 0 0 0 0 0 0 0 0 0 0 0 0 0 0 0 0 0 0 0 0 0 0 0 0 0 0 0 0 0 0 0 0 0 0
0 0 0 0 0 0 0 0 0 0 0 0 0 0 0 0 0 0 0 0 0 0 0 0 0 0 0 0 0 0 0 0 0 0 0 0 0 0 0 0 0 0 0 0 0
0 0 0 0 0 0 0 0 0 0 0 0 0 0 0 0 0 0 0 0 0 0 0 0 0 0 0 0 0 0 0 0 0 0 0 0 0 0 0 0 0 0 0 0 0
CIN
-0 -0 -0 -0 -0 -0 -0 -0 -0 -0 -0 -0 -0 -0 -0 -0 -0 -0 -0 -0 -0 -0 -0 -0 -0 -0 -0 -0 -0 -0 -0 -0 -0 -0 -0 -0 -0 -0 -0 -0 -0 -0 -0 -0 -0
-0 -0 -0 -0 -0 -0 -0 -0 -0 -0 -0 -0 -0 -0 -0 -0 -0 -0 -0 -0 -0 -0 -0 -0 -0 -0 -0 -0 -0 -0 -0 -0 -0 -0 -0 -0 -0 -0 -0 -0 -0 -0 -0 -0 -0
-0 -0 -0 -0 -0 -0 -0 -0 -0 -0 -0 -0 -0 -0 -0 -0 -0 -0 -0 -0 -0 -0 -0 -0 -0 -0 -0 -0 -0 -0 -0 -0 -0 -0 -0 -0 -0 -0 -0 -0 -0 -0 -0 -0 -4
-0 -0 -0 -0 -0 -0 -0 -0 -0 -0 -0 -0 -0 -0 -0 -0 -0 -0 -0 -0 -0 -0 -0 -0 -0 -0 -0 -0 -0 -0 -0 -0 -0 -0 -0 -0 -0 -0 -0 -0 -0 -0 -1 -0 -0
-0 -0 -0 -0 -0 -0 -0 -0 -0 -0 -0 -0 -0 -0 -0 -0 -0 -0 -0 -0 -0 -0 -0 -0 -0 -0 -0 -0 -0 -0 -0 -0 -0 -0 -0 -0 -0 -0 -0 -0 -0 -0 -0 -0 -0
-0 -0 -0 -0 -0 -0 -0 -0 -0 -0 -0 -0 -0 -0 -0 -0 -0 -0 -0 -0 -0 -0 -0 -0 -0 -0 -0 -0 -0 -0 -0 -0 -0 -0 -0 -0 -0 -1 -0 -1 -0 -0 -0 -0 -0
-0 -0 -0 -0 -0 -0 -0 -0 -0 -0 -0 -0 -0 -0 -0 -0 -0 -0 -0 -0 -0 -0 -0 -0 -0 -0 -0 -0 -0 -0 -0 -0 -0 -0 -0 -0 -0 -0 -0 -0 -0 -0 -0 -0 -0
-0 -0 -0 -0 -0 -0 -0 -0 -0 -0 -0 -0 -0 -0 -0 -0 -0 -0 -0 -0 -0 -0 -0 -0 -0 -0 -0 -0 -0 -0 -0 -0 -0 -0 -0 -0 -0 -0 -0 -0 -0 -0 -0 -0 -0
-0 -0 -0 -0 -0 -0 -0 -0 -0 -0 -0 -0 -0 -0 -0 -0 -0 -0 -0 -0 -0 -0 -0 -0 -0 -0 -0 -0 -0 -0 -0 -0 -0 -0 -0 -0 -0 -0 -0 -0 -0 -0 -0 -0 -0
-0 -0 -0 -0 -0 -0 -0 -0 -0 -0 -0 -0 -0 -0 -0 -0 -0 -0 -0 -0 -0 -0 -0 -0 -0 -0 -0 -0 -0 -0 -0 -0 -0 -0 -0 -0 -0 -0 -0 -0 -0 -0 -0 -0 -0
-0 -0 -0 -0 -0 -0 -0 -0 -0 -0 -0 -0 -0 -0 -0 -0 -0 -0 -0 -0 -0 -0 -0 -0 -0 -0 -0 -0 -0 -0 -0 -0 -0 -0 -0 -0 -0 -0 -0 -0 -0 -0 -0 -0 -0
-0 -0 -0 -0 -0 -0 -0 -0 -0 -0 -0 -0 -0 -0 -0 -0 -0 -0 -0 -0 -0 -0 -0 -0 -0 -0 -0 -0 -0 -0 -0 -0 -0 -0 -0 -0 -0 -0 -0 -0 -0 -0 -0 -0 -0
-0 -0 -0 -0 -0 -0 -0 -0 -0 -0 -0 -0 -0 -0 -0 -0 -0 -0 -0 -0 -0 -0 -0 -0 -0 -0 -0 -0 -0 -0 -0 -0 -0 -0 -0 -0 -0 -0 -0 -0 -0 -0 -0 -0 -0
-0 -0 -0 -0 -0 -0 -0 -0 -0 -0 -0 -0 -0 -0 -0 -0 -0 -0 -0 -0 -0 -0 -0 -0 -0 -0 -0 -0 -0 -0 -0 -0 -0 -0 -0 -0 -0 -0 -0 -0 -0 -0 -0 -0 -0
-0 -0 -0 -0 -0 -0 -0 -0 -0 -0 -0 -0 -0 -0 -0 -0 -0 -0 -0 -0 -0 -0 -0 -0 -0 -0 -0 -0 -0 -0 -0 -0 -0 -0 -0 -0 -0 -0 -0 -0 -0 -0 -0 -0 -0
-3 -0 -0 -0 -0 -0 -0 -0 -0 -0 -0 -0 -0 -0 -0 -0 -0 -0 -0 -0 -0 -0 -0 -0 -0 -0 -0 -0 -0 -0 -0 -0 -0 -0 -0 -0 -0 -0 -0 -0 -0 -0 -0 -0 -0
-3 -0 -0 -0 -0 -0 -0 -0 -0 -0 -0 -0 -0 -0 -0 -0 -0 -0 -0 -0 -0 -0 -0 -0 -0 -0 -0 -0 -0 -0 -0 -0 -0 -0 -0 -0 -0 -0 -0 -0 -0 -0 -0 -0 -0
-0 -0 -0 -0 -0 -0 -0 -0 -0 -0 -0 -0 -0 -0 -0 -0 -0 -0 -0 -0 -0 -0 -0 -0 -0 -0 -0 -0 -0 -0 -0 -0 -0 -0 -0 -0 -0 -0 -0 -0 -0 -0 -0 -0 -0
-0 -0 -0 -0 -0 -0 -0 -0 -0 -0 -0 -0 -0 -0 -0 -0 -0 -0 -0 -0 -0 -0 -0 -0 -0 -0 -0 -0 -0 -0 -0 -0 -0 -0 -0 -0 -0 -0 -0 -0 -0 -0 -0 -0 -0
-0 -0 -0 -0 -0 -0 -0 -0 -0 -0 -0 -0 -0 -0 -0 -0 -0 -0 -0 -0 -0 -0 -0 -0 -0 -0 -0 -0 -0 -0 -0 -0 -0 -0 -0 -0 -0 -0 -0 -0 -0 -0 -0 -0 -0
-0 -0 -0 -0 -0 -0 -0 -0 -0 -0 -0 -0 -0 -0 -0 -0 -0 -0 -0 -0 -0 -0 -0 -0 -0 -0 -0 -0 -0 -0 -0 -0 -0 -0 -0 -0 -0 -0 -0 -0 -0 -0 -0 -0 -0
-0 -0 -0 -0 -0 -0 -0 -0 -0 -0 -0 -0 -0 -0 -0 -0 -0 -0 -0 -0 -0 -0 -0 -0 -0 -0 -0 -0 -0 -0 -0 -0 -0 -0 -0 -0 -0 -0 -0 -0 -0 -0 -0 -0 -0
-0 -0 -0 -0 -0 -0 -0 -0 -0 -0 -0 -0 -0 -0 -0 -0 -0 -0 -0 -0 -0 -0 -0 -0 -0 -0 -0 -0 -0 -0 -0 -0 -0 -0 -0 -0 -0 -0 -0 -0 -0 -0 -0 -0 -0
-0 -0 -0 -0 -0 -0 -0 -0 -0 -0 -0 -0 -0 -0 -0 -0 -0 -0 -0 -0 -0 -0 -0 -0 -0 -0 -0 -0 -0 -0 -0 -0 -0 -0 -0 -0 -0 -0 -0 -0 -0 -0 -0 -0 -0
-0 -0 -0 -0 -0 -0 -0 -0 -0 -0 -0 -0 -0 -0 -0 -0 -0 -0 -0 -0 -0 -0 -0 -0 -0 -0 -0 -0 -0 -0 -0 -0 -0 -0 -0 -0 -0 -0 -0 -0 -0 -0 -0 -0 -0
-0 -0 -0 -0 -0 -0 -0 -0 -0 -0 -0 -0 -0 -0 -0 -0 -0 -0 -0 -0 -0 -0 -0 -0 -0 -0 -0 -0 -0 -0 -0 -0 -0 -0 -0 -0 -0 -0 -0 -0 -0 -0 -0 -0 -0
-0 -0 -0 -0 -0 -0 -0 -0 -0 -0 -0 -0 -0 -0 -0 -0 -0 -0 -0 -0 -0 -0 -0 -0 -0 -0 -0 -0 -0 -0 -0 -0 -0 -0 -0 -0 -0 -0 -0 -0 -0 -0 -0 -0 -0
Wind_Speed
21 22 23 23 24 25 26 26 26 26 25 25 25 24 23 25 26 24 24 26 27 28 14 14 17 18 22 21 20 17 19 21 21 23 22 29 30 28 29 28 31 27 29 37 41
21 22 23 24 24 25 26 26 26 25 25 24 24 24 23 22 20 24 25 28 28 27 23 23 22 22 20 21 20 21 20 20 20 22 23 27 29 30 31 33 28 34 38 39 30
22 22 23 24 24 25 25 26 26 25 24 24 23 24 22 19 18 22 27 28 28 24 19 19 18 19 22 22 22 21 20 18 22 22 23 27 28 31 30 33 39 40 40 41 36
22 22 23 23 24 25 25 25 26 25 23 23 24 24 21 17 19 22 27 27 26 24 18 18 17 19 20 22 20 20 21 20 21 23 24 27 28 27 31 36 38 35 38 41 41
21 21 22 23 24 24 25 25 26 25 23 22 23 23 19 18 19 22 25 26 24 24 23 20 21 20 20 20 23 22 19 19 21 23 25 26 30 27 35 40 34 36 41 41 39
20 20 22 23 24 24 25 26 26 24 22 21 22 21 18 18 18 22 22 23 25 24 25 22 21 21 21 20 21 19 18 19 21 26 23 28 28 29 39 41 44 40 35 34 32
20 20 21 22 23 25 25 26 25 23 20 20 21 19 18 17 18 20 20 21 23 23 23 22 18 18 18 20 20 19 17 16 23 28 24 23 28 34 37 42 46 42 37 28 17
19 20 21 22 23 24 25 25 22 21 20 19 19 17 18 16 17 19 20 17 20 20 21 21 21 21 20 19 18 18 18 19 23 29 22 25 29 30 33 38 43 38 37 32 18
19 19 19 21 22 24 25 23 20 19 18 18 17 17 17 15 16 18 18 17 17 18 19 18 18 20 18 19 19 22 21 21 23 26 26 28 27 26 29 32 40 34 31 28 19
17 18 19 21 22 24 24 20 19 19 17 16 15 16 15 15 16 17 17 17 16 16 16 17 17 20 23 20 21 21 21 20 24 25 27 25 25 24 25 29 35 31 27 24 22
17 17 18 20 21 23 19 17 17 18 18 17 16 14 14 15 15 16 16 16 15 15 17 18 20 21 22 23 22 20 20 20 20 23 25 23 22 23 25 28 32 31 29 25 7
16 16 18 19 21 20 16 17 17 16 17 16 14 14 14 14 14 16 17 14 14 16 16 17 19 19 20 21 20 20 21 20 17 20 23 22 21 22 26 28 27 28 25 8 11
15 15 16 18 20 18 17 16 16 16 18 16 15 14 13 14 13 14 15 13 15 16 17 17 18 17 18 18 17 16 18 21 19 18 19 20 25 26 26 28 27 28 25 21 7
14 15 16 17 17 15 17 14 14 17 19 15 13 13 12 12 11 13 14 13 14 15 16 17 16 16 17 15 19 19 18 17 18 24 27 25 23 26 26 26 27 25 12 17 12
14 15 17 16 17 16 15 13 14 15 18 14 12 13 10 11 10 11 13 12 14 13 15 15 16 17 17 18 18 19 17 16 17 19 22 26 22 24 23 23 23 23 4 9 11
14 14 17 15 17 16 12 12 14 15 18 13 11 9 7 9 10 10 11 11 11 13 15 16 16 17 18 15 15 16 18 18 17 18 23 25 23 23 25 22 21 20 19 10 8
14 13 16 17 16 12 10 12 17 17 17 13 11 7 7 6 8 8 9 9 10 12 14 15 17 17 17 17 17 16 16 21 22 21 21 22 20 20 21 21 23 21 17 19 19
13 13 17 17 14 12 12 18 21 19 15 15 11 5 9 5 8 7 7 8 12 11 14 14 14 17 18 20 20 21 21 24 23 20 17 18 19 18 19 20 20 21 19 19 19
12 18 19 18 15 15 16 22 23 20 13 6 7 9 9 8 9 5 6 7 10 13 12 13 13 16 17 18 19 20 23 19 20 17 18 18 17 19 17 17 17 18 20 20 21
18 19 22 17 16 17 22 28 25 19 15 9 13 11 7 5 6 6 3 11 10 12 13 12 14 15 15 16 18 20 19 22 21 22 21 16 16 16 14 13 15 16 17 19 20
18 21 21 17 16 21 27 29 24 19 16 14 14 12 13 9 7 5 3 12 12 9 12 12 13 14 16 15 17 19 21 20 20 19 20 17 14 16 15 14 12 13 15 16 17
20 27 20 19 22 25 29 25 22 18 16 16 15 12 10 8 10 8 5 11 10 8 10 12 13 14 15 15 15 16 19 18 21 19 17 16 12 14 14 14 13 11 11 13 14
23 22 21 25 30 27 26 26 24 19 19 15 15 15 12 9 13 10 10 13 9 11 10 9 11 13 16 16 14 14 14 15 18 17 14 16 14 12 11 11 10 9 8 8 9
25 28 25 30 29 27 26 27 26 22 21 18 16 12 10 11 14 9 10 11 10 11 12 13 12 11 13 15 16 14 12 10 13 15 15 7 9 9 7 6 5 6 6 5 5
31 31 28 34 36 29 26 22 24 23 23 20 20 16 11 12 13 12 11 11 13 11 13 13 14 15 15 15 13 12 11 6 5 7 11 13 8 10 11 6 4 2 3 4 4
36 29 27 29 27 29 28 30 23 24 20 24 22 12 12 14 15 11 9 12 13 12 12 14 16 17 19 19 18 13 10 4 2 2 3 4 8 2 4 8 3 2 2 3 4
36 30 25 28 28 33 33 27 27 22 25 23 18 12 11 11 7 5 7 10 12 11 11 13 16 19 18 19 26 25 16 10 14 11 8 10 9 9 13 19 10 5 1 3 4
Wind_Direction
312 314 314 318 322 324 327 336 346 353 357 355 350 352 350 349 341 9 359 357 349 331 309 47 40 32 26 30 36 45 12 3 5 2 354 348 349 351 350 347 343 342 336 330 323
306 309 309 317 320 321 325 333 346 355 354 359 357 355 356 355 10 3 358 347 345 348 11 7 15 23 28 26 32 24 16 16 14 5 1 357 355 355 354 351 353 341 333 328 330
303 308 309 315 318 324 326 334 345 353 359 360 356 351 358 10 11 358 338 339 339 9 28 30 33 34 24 28 24 30 26 31 17 14 9 0 1 359 359 356 346 340 335 329 329
303 308 308 314 318 322 327 336 340 346 358 360 350 347 357 18 352 354 334 342 343 14 33 36 39 28 27 23 39 36 33 33 26 18 13 9 8 9 8 357 351 347 337 331 325
305 311 313 316 320 324 327 334 335 344 354 359 349 340 357 1 356 351 345 353 5 14 12 29 26 31 26 43 39 38 45 40 29 19 16 15 11 14 2 358 2 358 345 336 329
307 312 314 318 321 323 324 325 332 343 353 356 348 342 353 347 0 348 358 0 0 9 11 22 35 45 40 44 37 45 47 39 32 15 24 15 15 22 1 2 2 3 1 355 352
303 310 315 317 321 321 323 327 332 342 352 353 344 349 351 351 1 358 4 7 6 4 20 31 53 43 58 50 51 52 47 46 23 14 21 20 20 15 6 6 6 10 16 22 23
303 309 314 318 321 323 324 327 336 341 346 344 340 348 344 6 2 357 356 21 13 18 32 42 47 47 48 55 53 48 43 34 21 14 26 21 9 16 15 13 14 22 26 31 33
301 306 314 318 320 319 321 327 336 339 345 340 343 343 339 4 360 357 4 11 20 33 43 58 63 55 57 45 43 34 31 32 24 26 24 23 20 22 23 23 16 29 32 37 48
299 302 310 315 317 316 321 328 335 337 342 345 344 342 347 351 358 357 6 16 27 42 49 52 61 46 27 42 35 31 33 33 21 21 23 27 28 31 32 29 25 36 42 47 55
293 299 308 314 314 314 325 331 331 330 328 328 332 341 348 347 6 3 9 16 49 46 29 50 39 33 42 38 38 44 37 32 30 30 27 31 35 39 38 38 36 43 48 56 37
289 296 303 310 309 313 319 319 320 323 324 332 335 340 338 341 358 354 342 17 36 27 49 44 35 52 51 41 47 46 39 34 38 39 35 34 38 46 45 46 50 51 56 12 5
280 291 301 306 305 309 310 314 317 312 315 323 323 331 339 335 351 349 347 30 29 28 35 35 47 68 52 54 52 49 43 34 35 36 46 42 43 45 50 50 55 56 66 75 70
274 283 293 298 302 306 305 313 311 308 310 319 320 323 334 344 354 356 4 30 41 42 22 27 71 63 52 64 50 47 48 43 42 30 31 42 47 47 54 58 58 64 76 77 85
265 274 280 284 296 297 306 305 304 309 308 319 318 322 337 333 8 7 7 38 34 37 41 46 65 51 59 56 51 49 47 55 54 47 40 39 54 50 60 62 68 71 48 82 88
255 267 273 282 289 294 302 300 294 296 297 316 329 330 339 342 0 25 31 349 355 11 14 38 67 50 49 60 62 55 53 59 64 56 44 40 53 53 54 68 80 86 90 94 90
247 262 267 276 280 285 290 286 278 281 292 304 312 326 324 0 1 26 45 37 33 51 71 41 44 49 56 56 56 61 57 48 50 53 50 46 56 60 66 78 78 91 101 99 98
240 254 266 272 277 271 274 263 268 280 283 293 301 314 308 4 337 32 46 1 317 343 76 87 70 45 47 45 44 50 53 47 44 50 50 54 57 64 71 80 91 89 106 106 104
231 254 259 263 264 261 257 257 263 272 286 290 295 289 295 306 316 6 356 329 323 311 62 79 76 43 49 52 49 41 40 56 53 61 57 57 58 56 72 82 90 99 92 101 104
239 248 255 255 253 255 253 253 260 271 281 277 282 282 276 283 306 314 30 297 310 313 331 34 67 50 61 61 54 46 48 42 48 45 48 59 57 55 69 84 92 93 97 96 96
238 247 253 248 248 251 250 251 261 270 274 272 277 276 276 275 289 296 338 288 300 330 333 1 36 60 47 57 49 49 42 42 43 47 44 47 67 57 61 75 84 90 102 99 97
234 245 246 237 243 251 248 254 262 265 270 275 272 281 272 269 278 286 304 300 301 334 339 349 16 28 43 49 56 55 43 47 33 31 39 43 58 63 61 69 71 76 81 88 89
229 247 247 242 241 244 251 251 258 259 259 265 266 271 276 269 276 286 290 289 309 312 329 352 6 21 20 29 53 45 49 52 41 36 31 30 43 59 61 63 72 73 75 76 79
231 240 244 242 249 242 242 248 249 257 256 261 263 273 270 272 287 279 285 293 302 313 322 326 340 4 14 17 28 31 42 51 46 36 26 27 19 35 45 50 74 95 100 92 88
232 243 239 236 238 241 238 245 242 248 252 253 258 263 265 270 276 282 282 289 293 312 311 321 325 333 345 355 9 13 16 36 40 47 28 23 17 9 10 14 15 128 96 122 137
232 242 240 245 229 231 235 239 237 243 242 247 256 246 264 272 273 267 270 280 293 293 307 315 321 327 331 340 346 353 345 334 341 318 276 303 272 313 30 358 324 33 162 171 167
233 238 239 236 230 227 234 236 237 238 247 253 249 243 255 276 302 320 304 293 296 296 298 311 316 320 331 338 329 332 359 12 358 7 2 360 357 0 359 349 357 348 311 221 207